When you browse on this site, cookies collect data to enhance your experience and personalize the content and advertising you see.
Visit our Privacy Policy to learn more. By continuing to use the site, you agree to this use of cookies and data.
  • In Schweiz
  • Länderverzeichnis
  • Für 7 Tage
  • Wassertemperatur
  • Wetterkarte
  • Widgets
  • user-avatar
    Anmelden

    Stündliche Wetter Nizhnie Balmazy

    Heute, 15 September, Sonntag

    Zeit Temperatur Niederschläge Wind Luftdruck Luftfeuchtigkeit
    00:00 +13°C° 0 mm 3 m/S 746 mmHg 84%
    01:00 +12°C° 0 mm 3 m/S 745 mmHg 83%
    02:00 +12°C° 0 mm 3 m/S 745 mmHg 82%
    03:00 +12°C° 0 mm 3 m/S 745 mmHg 81%
    04:00 +12°C° 0 mm 4 m/S 744 mmHg 80%
    05:00 +12°C° 0 mm 3 m/S 744 mmHg 79%
    06:00 +12°C° 0 mm 3 m/S 744 mmHg 79%
    07:00 +12°C° 0 mm 3 m/S 744 mmHg 78%
    08:00 +14°C° 0 mm 3 m/S 744 mmHg 73%
    09:00 +15°C° 0 mm 4 m/S 744 mmHg 68%
    10:00 +18°C° 0 mm 4 m/S 743 mmHg 63%
    11:00 +19°C° 0 mm 5 m/S 743 mmHg 62%
    12:00 +19°C° 0 mm 5 m/S 743 mmHg 60%
    13:00 +20°C° 0 mm 6 m/S 743 mmHg 59%
    14:00 +17°C° 0.6 mm 5 m/S 743 mmHg 69%
    15:00 +16°C° 0.6 mm 5 m/S 743 mmHg 79%
    16:00 +14°C° 0.6 mm 4 m/S 743 mmHg 89%
    17:00 +14°C° 0.1 mm 4 m/S 743 mmHg 90%
    18:00 +13°C° 0.1 mm 4 m/S 743 mmHg 92%
    19:00 +13°C° 0.1 mm 4 m/S 743 mmHg 93%
    20:00 +12°C° 0.2 mm 3 m/S 743 mmHg 94%
    21:00 +11°C° 0.2 mm 3 m/S 743 mmHg 95%
    22:00 +10°C° 0.2 mm 2 m/S 743 mmHg 96%
    23:00 +10°C° 0 mm 2 m/S 743 mmHg 97%

    Morgen, 16 September, Montag

    Zeit Temperatur Niederschläge Wind Luftdruck Luftfeuchtigkeit
    00:00 +9°C° 0 mm 2 m/S 742 mmHg 97%
    01:00 +10°C° 0 mm 1 m/S 742 mmHg 97%
    02:00 +9°C° 0 mm 1 m/S 742 mmHg 97%
    03:00 +9°C° 0 mm 1 m/S 742 mmHg 97%
    04:00 +9°C° 0 mm 1 m/S 742 mmHg 97%
    05:00 +8°C° 0 mm 2 m/S 742 mmHg 97%
    06:00 +8°C° 0 mm 2 m/S 742 mmHg 97%
    07:00 +7°C° 0 mm 2 m/S 742 mmHg 97%
    08:00 +9°C° 0 mm 2 m/S 741 mmHg 92%
    09:00 +10°C° 0 mm 3 m/S 741 mmHg 87%
    10:00 +11°C° 0 mm 3 m/S 741 mmHg 81%
    11:00 +12°C° 0.3 mm 4 m/S 741 mmHg 78%
    12:00 +12°C° 0.3 mm 4 m/S 740 mmHg 74%
    13:00 +13°C° 0.3 mm 5 m/S 740 mmHg 71%
    14:00 +13°C° 0.3 mm 5 m/S 739 mmHg 72%
    15:00 +12°C° 0.3 mm 5 m/S 739 mmHg 73%
    16:00 +12°C° 0.3 mm 5 m/S 739 mmHg 74%
    17:00 +11°C° 0.1 mm 4 m/S 739 mmHg 78%
    18:00 +10°C° 0.1 mm 4 m/S 739 mmHg 81%
    19:00 +9°C° 0.1 mm 3 m/S 738 mmHg 85%
    20:00 +8°C° 0 mm 4 m/S 738 mmHg 86%
    21:00 +8°C° 0 mm 4 m/S 737 mmHg 86%
    22:00 +8°C° 0 mm 5 m/S 737 mmHg 86%
    23:00 +8°C° 1.1 mm 5 m/S 736 mmHg 89%

    übermorgen, 17 September, Dienstag

    Zeit Temperatur Niederschläge Wind Luftdruck Luftfeuchtigkeit
    00:00 +8°C° 1.1 mm 5 m/S 736 mmHg 92%
    01:00 +8°C° 1.1 mm 6 m/S 735 mmHg 95%
    02:00 +8°C° 0.8 mm 6 m/S 735 mmHg 94%
    03:00 +8°C° 0.8 mm 6 m/S 734 mmHg 94%
    04:00 +8°C° 0.8 mm 5 m/S 734 mmHg 93%
    05:00 +8°C° 0.1 mm 5 m/S 734 mmHg 94%
    06:00 +8°C° 0.1 mm 6 m/S 734 mmHg 94%
    07:00 +8°C° 0.1 mm 6 m/S 734 mmHg 94%
    08:00 +8°C° 0.1 mm 6 m/S 735 mmHg 92%
    09:00 +9°C° 0.1 mm 6 m/S 735 mmHg 90%
    10:00 +9°C° 0.1 mm 6 m/S 735 mmHg 89%
    11:00 +9°C° 0.1 mm 6 m/S 735 mmHg 87%
    12:00 +10°C° 0.1 mm 5 m/S 736 mmHg 85%
    13:00 +10°C° 0.1 mm 5 m/S 736 mmHg 83%
    14:00 +12°C° 0.4 mm 5 m/S 736 mmHg 82%
    15:00 +12°C° 0.4 mm 5 m/S 736 mmHg 81%
    16:00 +13°C° 0.4 mm 5 m/S 736 mmHg 80%
    17:00 +12°C° 0.3 mm 4 m/S 736 mmHg 83%
    18:00 +11°C° 0.3 mm 4 m/S 736 mmHg 86%
    19:00 +9°C° 0.3 mm 3 m/S 736 mmHg 90%
    20:00 +9°C° 0.1 mm 3 m/S 736 mmHg 91%
    21:00 +8°C° 0.1 mm 4 m/S 736 mmHg 92%
    22:00 +8°C° 0.1 mm 4 m/S 736 mmHg 93%
    23:00 +7°C° 0.1 mm 4 m/S 736 mmHg 93%

    18 September, Mittwoch

    Zeit Temperatur Niederschläge Wind Luftdruck Luftfeuchtigkeit
    00:00 +8°C° 0.1 mm 3 m/S 736 mmHg 94%
    01:00 +8°C° 0.1 mm 3 m/S 736 mmHg 95%
    02:00 +7°C° 0 mm 3 m/S 736 mmHg 95%
    03:00 +7°C° 0 mm 3 m/S 736 mmHg 95%
    04:00 +7°C° 0 mm 3 m/S 737 mmHg 96%
    05:00 +7°C° 0.1 mm 3 m/S 736 mmHg 95%
    06:00 +8°C° 0.1 mm 3 m/S 736 mmHg 95%
    07:00 +7°C° 0.1 mm 4 m/S 736 mmHg 95%
    08:00 +8°C° 0.1 mm 4 m/S 736 mmHg 90%
    09:00 +11°C° 0.1 mm 4 m/S 736 mmHg 85%
    10:00 +12°C° 0.1 mm 5 m/S 736 mmHg 81%
    11:00 +12°C° 0.2 mm 5 m/S 736 mmHg 78%
    12:00 +13°C° 0.2 mm 5 m/S 736 mmHg 75%
    13:00 +13°C° 0.2 mm 5 m/S 736 mmHg 72%
    14:00 +13°C° 0.2 mm 4 m/S 736 mmHg 76%
    15:00 +12°C° 0.2 mm 4 m/S 735 mmHg 79%
    16:00 +11°C° 0.2 mm 4 m/S 735 mmHg 83%
    17:00 +11°C° 0.5 mm 4 m/S 735 mmHg 87%
    18:00 +10°C° 0.5 mm 3 m/S 734 mmHg 91%
    19:00 +9°C° 0.5 mm 3 m/S 734 mmHg 95%
    20:00 +9°C° 1.2 mm 3 m/S 733 mmHg 96%
    21:00 +9°C° 1.2 mm 2 m/S 733 mmHg 97%
    22:00 +9°C° 1.2 mm 2 m/S 732 mmHg 97%
    23:00 +9°C° 1.2 mm 3 m/S 732 mmHg 96%

    19 September, Donnerstag

    Zeit Temperatur Niederschläge Wind Luftdruck Luftfeuchtigkeit
    00:00 +9°C° 1.2 mm 3 m/S 731 mmHg 95%
    01:00 +8°C° 1.2 mm 4 m/S 731 mmHg 94%
    02:00 +8°C° 0.3 mm 4 m/S 731 mmHg 94%
    03:00 +7°C° 0.3 mm 4 m/S 731 mmHg 94%
    04:00 +7°C° 0.3 mm 5 m/S 731 mmHg 94%
    05:00 +7°C° 0.1 mm 5 m/S 731 mmHg 94%
    06:00 +7°C° 0.1 mm 5 m/S 731 mmHg 94%
    07:00 +6°C° 0.1 mm 5 m/S 731 mmHg 94%
    08:00 +7°C° 0 mm 5 m/S 731 mmHg 93%
    09:00 +7°C° 0 mm 5 m/S 732 mmHg 91%
    10:00 +7°C° 0 mm 4 m/S 732 mmHg 90%
    11:00 +8°C° 0.4 mm 4 m/S 733 mmHg 89%
    12:00 +8°C° 0.4 mm 5 m/S 733 mmHg 87%
    13:00 +9°C° 0.4 mm 5 m/S 734 mmHg 86%
    14:00 +9°C° 0.7 mm 5 m/S 735 mmHg 85%
    15:00 +9°C° 0.7 mm 5 m/S 736 mmHg 84%
    16:00 +9°C° 0.7 mm 5 m/S 737 mmHg 83%
    17:00 +8°C° 0.4 mm 4 m/S 738 mmHg 86%
    18:00 +7°C° 0.4 mm 4 m/S 738 mmHg 89%
    19:00 +6°C° 0.4 mm 4 m/S 739 mmHg 92%
    20:00 +6°C° 0.1 mm 4 m/S 740 mmHg 93%
    21:00 +6°C° 0.1 mm 4 m/S 741 mmHg 95%
    22:00 +5°C° 0.1 mm 4 m/S 741 mmHg 96%
    23:00 +5°C° 0.1 mm 4 m/S 742 mmHg 96%

    20 September, Freitag

    Zeit Temperatur Niederschläge Wind Luftdruck Luftfeuchtigkeit
    00:00 +5°C° 0.1 mm 4 m/S 742 mmHg 96%
    01:00 +5°C° 0.1 mm 4 m/S 743 mmHg 96%
    02:00 +5°C° 0 mm 4 m/S 743 mmHg 96%
    03:00 +5°C° 0 mm 4 m/S 743 mmHg 96%
    04:00 +5°C° 0 mm 4 m/S 744 mmHg 96%
    05:00 +5°C° 0.1 mm 4 m/S 744 mmHg 96%
    06:00 +5°C° 0.1 mm 4 m/S 744 mmHg 96%
    07:00 +5°C° 0.1 mm 4 m/S 744 mmHg 95%
    08:00 +5°C° 0.4 mm 4 m/S 744 mmHg 94%
    09:00 +5°C° 0.4 mm 4 m/S 744 mmHg 92%
    10:00 +6°C° 0.4 mm 4 m/S 745 mmHg 91%
    11:00 +6°C° 0.4 mm 4 m/S 745 mmHg 87%
    12:00 +7°C° 0.4 mm 5 m/S 745 mmHg 83%
    13:00 +8°C° 0.4 mm 5 m/S 745 mmHg 80%
    14:00 +8°C° 0.3 mm 4 m/S 745 mmHg 79%
    15:00 +8°C° 0.3 mm 4 m/S 745 mmHg 79%
    16:00 +8°C° 0.3 mm 4 m/S 745 mmHg 79%
    17:00 +8°C° 0 mm 3 m/S 745 mmHg 83%
    18:00 +7°C° 0 mm 2 m/S 745 mmHg 87%
    19:00 +7°C° 0 mm 1 m/S 745 mmHg 92%
    20:00 +6°C° 0 mm 1 m/S 745 mmHg 93%
    21:00 +5°C° 0 mm 2 m/S 745 mmHg 94%
    22:00 +5°C° 0 mm 2 m/S 744 mmHg 95%
    23:00 +5°C° 0 mm 2 m/S 744 mmHg 95%
    Mehr zeigen